Flag for Japan Weather past 2 weeks in Nagano, Japan

Now
49 °F

Cool.


Feels Like: 49 °F
Forecast: 40 / 72 °F
Wind: 2 mph from East

Location: Nagano

Current Time: Oct 23, 2014 at 11:16:36 PM

Latest Report: Oct 23, 2014 at 10:00 PM


Visibility: N/A

Pressure: 30.15 "Hg

Humidity: 90%

Dew point: 46 °F

Location of NaganoLocation

Historic Weather in Nagano — Graph

°F

Nagano temperature yesterday

Maximum temperature yesterday: 59 °F (at 12:00 AM)
Minimum temperature yesterday: 49 °F (at 7:00 PM)
Average temperature yesterday: 53 °F

Past Weeks' High & Low Weather Summary

 TemperatureHumidityPressure
High74 °F (Oct 9, 3:00 PM)97% (Oct 13, 11:00 PM)30.43 "Hg (Oct 13, 11:00 PM)
Low39 °F (Oct 18, 6:00 AM)29% (Oct 19, 3:00 PM)29.21 "Hg (Oct 14, 1:00 AM)
Average57 °F75%30.08 "Hg
* Reported Oct 8 10:00 PM — Oct 23 10:00 PM, Nagano, Weather by CustomWeather, © 2014

Note: Actual official high and low records may vary slightly from our data, if they occured in-between our weather recording intervals... More about our weather records

Advertising

Nagano weather history for previous 24 hours

 ConditionsComfort  
Time TempWeatherWind HumidityBarometerVisibility
10:00 PM
Oct 23
49 °FCool.2 mph90%30.15 "HgN/A
9:00 PM49 °FPassing clouds.2 mph90%30.15 "Hg9 mi
8:00 PM51 °FCool.1 mph84%30.14 "HgN/A
7:00 PM51 °FCool.3 mph85%30.13 "HgN/A
6:00 PM52 °FCool.3 mph81%30.11 "HgN/A
5:00 PM55 °FCool.3 mph69%30.08 "HgN/A
4:00 PM56 °FCool.6 mph71%30.05 "HgN/A
3:00 PM60 °FPartly sunny.5 mph60%30.02 "Hg16 mi
2:00 PM61 °FRefreshingly cool.3 mph57%30.01 "HgN/A
1:00 PM58 °FCool.2 mph60%30.04 "HgN/A
12:00 PM58 °FCool.2 mph60%30.06 "HgN/A
11:00 AM56 °FCool.6 mph62%30.09 "HgN/A
10:00 AM53 °FCool.1 mph69%30.12 "HgN/A
9:00 AM51 °FOvercast.2 mph78%30.13 "Hg9 mi
8:00 AM50 °FCool.1 mph84%30.13 "HgN/A
7:00 AM47 °FCool.2 mph89%30.12 "HgN/A
6:00 AM48 °FCool.1 mph86%30.10 "HgN/A
5:00 AM49 °FCool.7 mph82%30.07 "HgN/A
4:00 AM48 °FCool.8 mph86%30.06 "HgN/A
3:00 AM50 °FOvercast.8 mph74%30.06 "Hg9 mi
2:00 AM49 °FCool.7 mph75%30.05 "HgN/A
1:00 AM49 °FCool.7 mph75%30.05 "HgN/A
12:00 AM49 °FCool.10 mph76%30.04 "HgN/A
11:00 PM
Oct 22
50 °FCool.9 mph74%30.05 "HgN/A
Weather by CustomWeather, © 2014

See weather overviewHow to use our weather pages